1505314800.88,41884,17.25,73470.3,5.63,-14.29,-9.83,0,*40
1505314802.06,41885,17.25,73460.5,5.63,-14.69,-9.97,0,*40
1505314803.28,41886,17.25,73462.3,5.63,-14.83,-10.05,0,*74
1505314804.47,41887,17.25,73468.0,5.63,-15.07,-10.05,0,*78
1505314805.69,41888,17.25,73450.8,5.61,-15.15,-10.05,0,*76
1505314806.89,41889,17.25,73442.3,5.63,-15.71,-10.53,0,*74
1505314808.11,41890,17.25,73434.5,5.61,-15.49,-10.19,0,*7B
1505314809.33,41891,17.25,73458.8,5.61,-15.71,-10.23,0,*78
1505314810.56,41892,17.25,73494.8,5.61,-15.01,-9.71,0,*43
1505314811.8,41893,17.31,73518.0,5.61,-15.57,-10.09,0,*76
1505314813.03,41894,17.25,73462.5,5.61,-15.75,-10.45,0,*79
1505314814.25,41895,17.25,73482.5,5.59,-16.51,-10.85,0,*7A
1505314815.5,41896,17.25,73482.8,5.57,-15.81,-10.15,0,*70
1505314816.75,41897,17.25,73466.8,5.57,-15.81,-10.27,0,*70
1505314818.03,41898,17.25,73454.0,5.57,-16.09,-10.41,0,*7C
1505314819.26,41899,17.25,73460.0,5.51,-16.03,-10.31,0,*76
1505314820.5,41900,17.25,73460.8,5.51,-15.89,-9.97,0,*42
1505314821.72,41901,17.25,73480.8,5.53,-15.85,-9.93,0,*49
1505314822.96,41902,17.25,73464.5,5.53,-15.43,-9.45,0,*4B
1505314824.2,41903,17.25,73460.5,5.53,-15.39,-9.37,0,*42
1505314825.41,41904,17.25,73428.0,5.53,-15.67,-9.49,0,*47
1505314826.62,41905,17.25,73438.0,5.53,-15.95,-9.57,0,*44
1505314827.8,41906,17.25,73440.0,5.53,-15.67,-9.31,0,*4A
1505314829.01,41907,17.25,73462.3,5.53,-15.81,-9.23,0,*40
1505314830.28,41908,17.25,73440.0,5.51,-16.09,-9.61,0,*48
1505314831.48,41909,17.25,73454.0,5.53,-15.99,-9.49,0,*4B
1505314832.69,41910,17.25,73452.0,5.53,-15.99,-9.45,0,*4F
1505314833.93,41911,17.25,73446.3,5.53,-15.85,-9.37,0,*46
1505314835.14,41912,17.25,73462.5,5.53,-15.99,-9.49,0,*41
1505314836.35,41913,17.31,73478.0,5.53,-16.31,-9.89,0,*4D
1505314837.56,41914,17.25,73486.5,5.53,-16.17,-9.79,0,*41
1505314838.8,41915,17.25,73480.5,5.51,-15.49,-9.41,0,*41
1505314840.02,41916,17.25,73488.3,5.51,-15.99,-9.79,0,*44
1505314841.23,41917,17.25,73492.8,5.53,-15.85,-9.71,0,*42
1505314842.45,41918,17.25,73460.8,5.53,-15.85,-9.71,0,*4D
1505314843.69,41919,17.25,73494.0,5.51,-15.63,-9.61,0,*47
1505314844.93,41920,17.25,73482.0,5.51,-15.71,-9.61,0,*4E
1505314846.15,41921,17.25,73478.8,5.53,-15.85,-9.79,0,*4F
1505314847.37,41922,17.25,73462.3,5.53,-16.17,-10.15,0,*76
1505314848.59,41923,17.31,73468.0,5.51,-16.03,-9.97,0,*42
1505314849.82,41924,17.25,73464.5,5.53,-16.27,-10.19,0,*7F
1505314851.02,41925,17.25,73468.0,5.53,-16.45,-10.31,0,*70
1505314852.24,41926,17.25,73476.5,5.53,-16.17,-10.01,0,*77
1505314853.45,41927,17.25,73464.3,5.53,-16.41,-10.19,0,*7C
1505314854.65,41928,17.25,73462.3,5.53,-16.75,-10.45,0,*7D
1505314855.83,41929,17.25,73454.0,5.53,-16.89,-10.85,0,*73
1505314857.03,41930,17.25,73452.3,5.53,-16.97,-10.89,0,*78
1505314858.28,41931,17.25,73458.8,5.51,-17.03,-11.01,0,*76
1505314859.5,41932,17.25,73454.3,5.51,-16.93,-11.01,0,*7D
1505314860.72,41933,17.25,73474.8,5.51,-16.93,-11.01,0,*7C
1505314861.94,41934,17.25,73470.0,5.51,-16.75,-11.01,0,*73
1505314863.17,41935,17.25,73462.0,5.51,-16.75,-11.15,0,*77
1505314864.38,41936,17.25,73474.0,5.53,-16.89,-11.33,0,*71
1505314865.66,41937,17.25,73490.8,5.51,-17.07,-11.73,0,*71
1505314866.93,41938,17.25,73488.5,5.51,-17.11,-11.89,0,*7C
1505314868.17,41939,17.25,73492.8,5.51,-16.93,-11.85,0,*7A
1505314869.43,41940,17.25,73474.0,5.51,-17.21,-12.39,0,*78
1505314870.7,41941,17.25,73468.8,5.51,-17.07,-12.15,0,*73
1505314871.95,41942,17.25,73460.3,5.49,-17.41,-12.61,0,*78
1505314873.16,41943,17.25,73454.0,5.45,-17.31,-12.61,0,*72
1505314874.42,41944,17.25,73442.5,5.45,-17.45,-12.79,0,*7F
1505314875.64,41945,17.25,73448.5,5.49,-17.41,-12.89,0,*79
1505314876.84,41946,17.25,73452.0,5.45,-17.69,-13.07,0,*7B
1505314878.06,41947,17.25,73430.3,5.45,-17.87,-13.33,0,*7D
1505314879.28,41948,17.25,73442.0,5.45,-17.97,-13.51,0,*77
1505314880.51,41949,17.25,73460.5,5.45,-17.55,-12.93,0,*77
1505314881.75,41950,17.25,73476.0,5.45,-17.45,-13.01,0,*74
1505314882.98,41951,17.25,73478.3,5.45,-17.41,-12.93,0,*7B
1505314884.17,41952,17.25,73468.8,5.49,-17.31,-12.93,0,*73
1505314885.42,41953,17.25,73468.5,5.45,-17.45,-13.01,0,*77
1505314886.67,41954,17.25,73470.3,5.51,-17.21,-12.89,0,*76
1505314887.86,41955,17.25,73474.8,5.45,-17.83,-13.47,0,*79
1505314889.06,41956,17.25,73472.5,5.49,-17.83,-13.65,0,*76
1505314890.27,41957,17.25,73476.8,5.49,-17.69,-13.33,0,*70
1505314891.49,41958,17.25,73478.0,5.45,-18.35,-13.93,0,*7F
1505314892.71,41959,17.25,73486.8,5.49,-18.45,-14.05,0,*7D
1505314893.9,41960,17.25,73498.0,5.45,-18.49,-14.19,0,*7A
1505314895.16,41961,17.25,73500.8,5.45,-18.31,-14.01,0,*7D
1505314896.4,41962,17.25,73470.0,5.45,-18.31,-13.87,0,*77
1505314897.66,41963,17.25,73480.0,5.41,-17.97,-13.61,0,*79
1505314898.88,41964,17.25,73494.0,5.43,-18.07,-13.65,0,*7E
1505314900.13,41965,17.25,73494.8,5.43,-18.41,-13.83,0,*75
1505314901.35,41966,17.25,73490.3,5.41,-18.31,-13.73,0,*7C
1505314902.57,41967,17.25,73482.5,5.43,-18.21,-13.65,0,*79
1505314903.79,41968,17.25,73480.5,5.43,-18.41,-13.69,0,*7C
1505314905.04,41969,17.25,73486.8,5.43,-18.93,-14.19,0,*72
1505314906.26,41970,17.25,73480.0,5.41,-18.73,-13.87,0,*76
1505314907.48,41971,17.25,73484.3,5.41,-18.73,-13.97,0,*76
1505314908.67,41972,17.25,73482.8,5.41,-18.45,-13.69,0,*71
1505314909.9,41973,17.25,73494.8,5.41,-18.31,-13.55,0,*7C
1505314911.13,41974,17.25,73492.3,5.41,-17.97,-13.11,0,*78
1505314912.32,41975,17.25,73478.0,5.41,-17.69,-12.89,0,*78
1505314913.54,41976,17.25,73468.0,5.41,-17.63,-12.89,0,*71
1505314914.76,41977,17.25,73460.8,5.41,-17.63,-12.89,0,*70
1505314916.01,41978,17.25,73458.5,5.41,-17.63,-12.83,0,*75
1505314917.25,41979,17.25,73466.8,5.41,-17.55,-12.57,0,*78
1505314918.5,41980,17.25,73468.0,5.41,-17.55,-12.71,0,*7A
1505314919.77,41981,17.25,73470.0,5.43,-17.59,-12.65,0,*70
1505314921.03,41982,17.25,73472.0,5.43,-17.87,-12.83,0,*78
1505314922.27,41983,17.25,73484.0,5.43,-18.01,-12.93,0,*79
1505314923.49,41984,17.25,73484.0,5.41,-18.11,-13.01,0,*77
1505314924.71,41985,17.25,73482.5,5.41,-18.11,-13.01,0,*76
1505314925.96,41986,17.25,73472.5,5.43,-17.93,-12.97,0,*7C
1505314927.21,41987,17.25,73486.5,5.43,-18.01,-12.93,0,*7D
1505314928.43,41988,17.25,73484.8,5.43,-18.21,-13.11,0,*7B
1505314929.65,41989,17.25,73490.3,5.43,-18.25,-13.11,0,*7E
1505314930.85,41990,17.25,73484.3,5.41,-18.17,-13.23,0,*74
1505314932.07,41991,17.25,73480.8,5.41,-17.93,-12.97,0,*78
1505314933.32,41992,17.25,73480.8,5.43,-17.93,-13.11,0,*76
1505314934.51,41993,17.25,73490.3,5.41,-18.25,-13.15,0,*73
1505314935.76,41994,17.25,73478.0,5.41,-17.97,-13.01,0,*77
1505314936.98,41995,17.25,73498.8,5.41,-18.17,-13.29,0,*7B
1505314938.21,41996,17.25,73482.5,5.41,-17.97,-12.89,0,*74
1505314939.43,41997,17.25,73494.8,5.41,-17.97,-13.11,0,*75
1505314940.63,41998,17.25,73480.3,5.41,-18.11,-13.23,0,*7A
1505314941.87,41999,17.25,73468.0,5.41,-17.93,-13.01,0,*7E
1505314943.09,42000,17.25,73466.3,5.41,-17.83,-13.01,0,*75
1505314944.31,42001,17.25,73464.8,5.41,-17.93,-13.23,0,*75
1505314945.51,42002,17.25,73468.0,5.41,-18.17,-13.55,0,*74
1505314946.7,42003,17.25,73470.3,5.41,-18.17,-13.55,0,*75
1505314947.93,42004,17.25,73464.0,5.41,-18.31,-13.73,0,*72
1505314949.17,42005,17.25,73458.8,5.41,-18.59,-13.87,0,*76
1505314950.42,42006,17.25,73458.5,5.37,-18.59,-14.05,0,*79
1505314951.61,42007,17.25,73474.3,5.37,-18.73,-14.33,0,*75
1505314952.82,42008,17.25,73448.0,5.37,-18.69,-14.29,0,*7A
1505314954.04,42009,17.25,73458.0,5.37,-18.79,-14.51,0,*75
1505314955.25,42010,17.25,73464.3,5.37,-18.73,-14.65,0,*70
1505314956.47,42011,17.25,73464.5,5.35,-18.49,-14.69,0,*76
1505314957.72,42012,17.25,73466.3,5.33,-18.55,-14.83,0,*7A
1505314958.94,42013,17.25,73452.3,5.33,-18.49,-14.93,0,*77
1505314960.17,42014,17.25,73454.0,5.33,-18.17,-14.79,0,*7F
1505314961.4,42015,17.25,73434.3,5.35,-18.65,-15.25,0,*75
1505314962.6,42016,17.25,73450.0,5.33,-18.25,-15.07,0,*74
1505314963.81,42017,17.25,73458.5,5.33,-18.69,-15.53,0,*7C
1505314965.01,42018,17.25,73434.8,5.33,-18.69,-15.71,0,*73
1505314966.26,42019,17.25,73440.0,5.31,-18.89,-15.75,0,*7A
1505314967.52,42020,17.25,73442.8,5.31,-19.13,-16.13,0,*71
1505314968.74,42021,17.25,73454.3,5.29,-18.83,-15.89,0,*71
1505314969.96,42022,17.25,73462.3,5.29,-18.89,-16.03,0,*79
1505314971.21,42023,17.25,73470.5,5.29,-19.31,-16.51,0,*7D
1505314972.47,42024,17.25,73464.3,5.25,-19.57,-16.65,0,*71
1505314973.7,42025,17.25,73468.0,5.25,-19.27,-16.41,0,*71
1505314974.94,42026,17.25,73494.0,5.25,-18.65,-15.81,0,*7A
1505314976.14,42027,17.25,73494.0,5.25,-18.79,-16.03,0,*7F
1505314977.37,42028,17.25,73488.0,5.25,-18.93,-16.03,0,*74
1505314978.59,42029,17.25,73468.3,5.23,-18.93,-15.99,0,*73
1505314979.84,42030,17.25,73458.3,5.25,-18.89,-15.81,0,*7F
1505314981.08,42031,17.25,73454.8,5.23,-19.13,-16.13,0,*72
1505314982.31,42032,17.25,73468.3,5.23,-19.13,-16.13,0,*71
1505314983.53,42033,17.25,73468.0,5.23,-19.07,-16.09,0,*7E
1505314984.73,42034,17.25,73468.8,5.23,-18.99,-15.99,0,*75
1505314985.94,42035,17.25,73462.0,5.25,-19.03,-15.95,0,*7C
1505314987.19,42036,17.25,73456.3,5.23,-19.31,-16.23,0,*76
1505314988.42,42037,17.25,73466.5,5.23,-19.57,-16.41,0,*73
1505314989.65,42038,17.25,73478.0,5.23,-19.27,-15.99,0,*7D
1505314990.93,42039,17.25,73482.0,5.21,-19.31,-16.09,0,*73
1505314992.15,42040,17.25,73472.5,5.19,-19.47,-15.89,0,*7C
1505314993.38,42041,17.25,73480.8,5.19,-19.31,-15.63,0,*78
1505314994.6,42042,17.25,73486.8,5.19,-19.13,-15.29,0,*75
1505314995.85,42043,17.25,73486.3,5.21,-19.07,-15.35,0,*77
1505314997.13,42044,17.25,73462.8,5.21,-19.31,-15.39,0,*79
1505314998.35,42045,17.25,73454.0,5.19,-20.19,-16.03,0,*79
1505314999.56,42046,17.25,73464.5,5.19,-19.95,-15.75,0,*76
1505315000.78,42047,17.25,73468.0,5.19,-20.35,-15.75,0,*77
1505315002.01,42048,17.25,73446.8,5.17,-20.43,-15.99,0,*75
1505315003.21,42049,17.25,73446.5,5.15,-20.73,-15.95,0,*79
1505315004.44,42050,17.25,73464.0,5.15,-20.59,-15.81,0,*7C
1505315005.69,42051,17.25,73472.0,5.15,-19.85,-14.93,0,*74
1505315006.9,42052,17.25,73470.0,5.13,-20.29,-15.15,0,*72
1505315008.13,42053,17.25,73478.0,5.13,-20.39,-15.15,0,*72
1505315009.38,42054,17.25,73480.5,5.13,-20.43,-15.01,0,*7D
1505315010.62,42055,17.25,73484.8,5.11,-20.35,-14.93,0,*75
1505315011.83,42056,17.25,73484.5,5.11,-20.05,-14.51,0,*7B
1505315013.08,42057,17.25,73474.5,5.09,-20.19,-14.37,0,*7E
1505315014.31,42058,17.25,73472.5,5.09,-19.95,-14.23,0,*7A
1505315015.5,42059,17.25,73470.0,5.07,-20.05,-14.29,0,*7C
1505315016.72,42060,17.25,73476.8,5.09,-19.95,-14.11,0,*70
1505315017.98,42061,17.25,73490.0,5.09,-19.81,-13.83,0,*78
1505315019.22,42062,17.25,73480.3,5.07,-19.27,-13.23,0,*73
1505315020.44,42063,17.25,73470.3,5.09,-19.47,-13.51,0,*7F
1505315021.68,42064,17.25,73480.3,5.07,-19.81,-13.83,0,*73
1505315022.93,42065,17.25,73480.8,5.09,-19.61,-13.65,0,*7A
1505315024.17,42066,17.25,73470.3,5.07,-19.65,-13.79,0,*7E
1505315025.4,42067,17.25,73454.3,5.07,-19.65,-13.69,0,*7E
1505315026.59,42068,17.25,73476.5,5.07,-19.47,-13.65,0,*7D
1505315027.79,42069,17.25,73464.0,5.07,-19.47,-13.69,0,*70
1505315029.04,42070,17.25,73460.3,5.03,-19.65,-13.87,0,*7C
1505315030.26,42071,17.25,73456.5,5.07,-19.51,-13.83,0,*7A
1505315031.49,42072,17.25,73456.0,5.07,-19.27,-13.69,0,*7C
1505315032.74,42073,17.25,73454.8,5.01,-19.37,-13.87,0,*7A
1505315033.99,42074,17.25,73458.8,5.03,-19.31,-13.87,0,*79
1505315035.24,42075,17.25,73460.0,5.01,-19.17,-13.83,0,*7A
1505315036.47,42076,17.25,73446.5,5.01,-19.47,-14.29,0,*7B
1505315037.72,42077,17.25,73446.5,5.01,-19.07,-14.01,0,*74
1505315038.95,42078,17.25,73452.3,5.03,-19.07,-14.05,0,*7D
1505315040.22,42079,17.25,73450.8,5.01,-19.31,-14.43,0,*79
1505315041.47,42080,17.25,73432.3,5.01,-19.65,-14.69,0,*76
1505315042.7,42081,17.25,73436.0,5.01,-19.99,-15.07,0,*7D
1505315043.94,42082,17.25,73430.5,5.01,-20.29,-15.43,0,*7F
1505315045.22,42083,17.25,73442.8,4.97,-19.65,-14.83,0,*7F
1505315046.45,42084,17.25,73450.8,4.99,-19.75,-14.83,0,*77
1505315047.69,42085,17.25,73456.0,4.97,-19.81,-14.89,0,*79
1505315048.9,42086,17.25,73462.3,4.99,-19.51,-14.61,0,*7F
1505315050.18,42087,17.25,73474.0,4.97,-19.65,-14.83,0,*7B
1505315051.44,42088,17.25,73464.0,4.97,-19.27,-14.37,0,*7D
1505315052.66,42089,17.25,73484.5,4.97,-19.03,-14.37,0,*7A
1505315053.91,42090,17.25,73486.8,4.97,-19.47,-14.79,0,*78
1505315055.14,42091,17.25,73480.8,4.95,-18.99,-14.43,0,*70
1505315056.35,42092,17.25,73464.0,4.95,-18.69,-14.29,0,*70
1505315057.55,42093,17.25,73472.3,4.95,-18.83,-14.37,0,*7A
1505315058.78,42094,17.25,73482.8,4.95,-19.41,-15.15,0,*73
1505315060.0,42095,17.25,73474.3,4.95,-19.47,-15.29,0,*7B
1505315061.26,42096,17.25,73472.8,4.93,-19.47,-15.43,0,*72
1505315062.49,42097,17.25,73468.0,4.93,-19.95,-15.75,0,*79
1505315063.75,42098,17.25,73466.3,4.93,-19.65,-15.71,0,*7D
1505315064.99,42099,17.25,73468.5,4.93,-19.07,-15.29,0,*75
1505315066.23,42100,17.25,73482.0,4.93,-19.03,-15.15,0,*7F
1505315067.51,42101,17.25,73488.8,4.93,-19.23,-15.35,0,*7E
1505315068.75,42102,17.25,73470.3,4.93,-19.03,-15.29,0,*72
1505315070.0,42103,17.25,73476.3,4.93,-19.03,-15.35,0,*7E
1505315071.27,42104,17.25,73478.5,4.93,-19.23,-15.49,0,*70
1505315072.51,42105,17.25,73472.3,4.93,-19.47,-15.71,0,*78
1505315073.73,42106,17.25,73474.5,4.91,-19.47,-15.71,0,*79
1505315075.02,42107,17.25,73486.3,4.93,-19.65,-15.85,0,*71
1505315076.28,42108,17.25,73476.3,4.93,-19.71,-15.85,0,*7B
1505315077.52,42109,17.25,73470.8,4.93,-19.71,-15.75,0,*75
1505315078.77,42110,17.25,73478.5,4.91,-19.51,-15.43,0,*78
1505315080.05,42111,17.25,73486.0,4.91,-19.31,-15.21,0,*7B
1505315081.3,42112,17.25,73482.3,4.91,-19.31,-15.15,0,*7F
1505315082.56,42113,17.25,73460.8,4.91,-19.31,-14.89,0,*7A
1505315083.84,42114,17.25,73460.3,4.91,-19.65,-14.97,0,*73
1505315085.06,42115,17.25,73440.5,4.89,-19.65,-14.65,0,*76
1505315086.29,42116,17.25,73428.0,4.91,-19.99,-15.07,0,*7A
1505315087.54,42117,17.25,73470.5,4.89,-19.85,-14.47,0,*7A
1505315088.77,42118,17.25,73466.5,4.89,-19.71,-14.47,0,*7E
1505315090.01,42119,17.25,73434.5,4.91,-19.99,-14.43,0,*74
1505315091.23,42120,17.25,73460.0,4.91,-19.99,-14.29,0,*72
1505315092.42,42121,17.25,73462.3,4.89,-19.99,-13.93,0,*7C
1505315093.64,42122,17.25,73468.5,4.89,-19.99,-13.87,0,*7A
1505315094.86,42123,17.25,73460.5,4.89,-19.75,-13.37,0,*72
1505315096.06,42124,17.25,73456.3,4.89,-19.71,-13.19,0,*7D
1505315097.3,42125,17.25,73464.3,4.89,-20.15,-13.37,0,*78
1505315098.5,42126,17.25,73466.8,4.89,-19.91,-12.93,0,*72
1505315099.74,42127,17.25,73466.8,4.89,-20.15,-13.01,0,*7F
1505315100.95,42128,17.25,73458.5,4.89,-20.15,-12.89,0,*71
1505315102.14,42129,17.25,73462.8,4.89,-20.29,-12.89,0,*7F
1505315103.36,42130,17.25,73484.0,4.89,-20.29,-12.75,0,*74
1505315104.55,42131,17.25,73464.0,4.89,-20.05,-12.21,0,*7A
1505315105.79,42132,17.25,73460.5,4.89,-20.35,-12.53,0,*7F
1505315107.01,42133,17.25,73488.8,4.87,-20.25,-12.39,0,*7D
1505315108.23,42134,17.25,73474.3,4.85,-20.09,-11.93,0,*75
1505315109.46,42135,17.25,73494.3,4.85,-19.71,-11.55,0,*7B
1505315110.73,42136,17.25,73470.0,4.87,-19.81,-11.37,0,*71
1505315111.96,42137,17.25,73494.3,4.85,-19.57,-11.01,0,*7C
1505315113.18,42138,17.25,73482.5,4.87,-19.47,-10.85,0,*7D
1505315114.37,42139,17.25,73454.8,4.85,-20.09,-11.23,0,*73
1505315115.57,42140,17.25,73440.5,4.85,-19.91,-11.01,0,*76
1505315116.79,42141,17.25,73456.8,4.85,-20.19,-11.15,0,*78
1505315118.02,42142,17.25,73480.5,4.81,-19.65,-10.35,0,*7D
1505315119.26,42143,17.25,73478.3,4.81,-19.61,-10.31,0,*7C
1505315120.48,42144,17.25,73478.8,4.81,-19.47,-9.83,0,*4E
1505315121.7,42145,17.25,73484.8,4.85,-19.17,-9.45,0,*44
1505315122.93,42146,17.25,73442.0,4.85,-19.27,-9.31,0,*47
1505315124.15,42147,17.25,73468.3,4.85,-19.27,-8.97,0,*4B
1505315125.37,42148,17.25,73470.3,4.85,-19.41,-8.93,0,*40
1505315126.59,42149,17.25,73470.3,4.85,-19.61,-8.75,0,*4B
1505315127.78,42150,17.25,73456.5,4.85,-19.71,-8.67,0,*41
1505315129.0,42151,17.25,73456.0,4.85,-19.57,-8.29,0,*4E
1505315130.22,42152,17.25,73468.3,4.81,-19.47,-8.03,0,*40
1505315131.43,42153,17.25,73472.3,4.81,-19.03,-7.39,0,*47
1505315132.63,42154,17.25,73480.3,4.81,-18.73,-7.11,0,*4C
1505315133.85,42155,17.25,73504.5,4.81,-18.31,-6.69,0,*45
1505315135.07,42156,17.25,73490.0,4.81,-18.01,-6.35,0,*4C
1505315136.34,42157,17.25,73480.3,4.79,-17.93,-6.27,0,*4D
1505315137.56,42158,17.25,73480.5,4.81,-17.79,-6.13,0,*46
1505315138.78,42159,17.25,73484.0,4.81,-17.49,-5.65,0,*46
1505315140.02,42160,17.25,73492.3,4.79,-17.21,-5.43,0,*41
1505315141.3,42161,17.25,73518.8,4.79,-17.07,-5.15,0,*47
1505315142.52,42162,17.25,73512.0,4.81,-16.89,-4.89,0,*40
1505315143.74,42163,17.25,73498.8,4.81,-16.79,-4.77,0,*4F
1505315144.96,42164,17.25,73490.8,4.81,-16.75,-4.73,0,*40
1505315146.18,42165,17.25,73486.8,4.81,-16.93,-4.85,0,*40
1505315147.39,42166,17.25,73478.3,4.81,-16.93,-4.77,0,*4E
1505315148.62,42167,17.25,73476.3,4.81,-16.65,-4.37,0,*42
1505315149.87,42168,17.25,73486.0,4.79,-16.37,-4.01,0,*48
1505315151.1,42169,17.25,73476.5,4.79,-15.99,-3.67,0,*49
1505315152.33,42170,17.25,73480.3,4.79,-15.99,-3.59,0,*4C
1505315153.55,42171,17.25,73482.5,4.79,-15.71,-3.23,0,*46
1505315154.81,42172,17.25,73496.5,4.79,-14.97,-2.55,0,*4C
1505315156.03,42173,17.25,73490.3,4.79,-14.61,-2.35,0,*42
1505315157.29,42174,17.25,73470.5,4.79,-14.11,-2.03,0,*47
1505315158.57,42175,17.25,73472.3,4.79,-14.01,-1.91,0,*4F
1505315159.79,42176,17.25,73484.0,4.79,-13.43,-1.55,0,*45
1505315161.01,42177,17.25,73482.5,4.79,-12.97,-1.21,0,*4F
1505315162.26,42178,17.25,73484.3,4.79,-12.75,-1.17,0,*49
1505315163.53,42179,17.25,73484.3,4.79,-12.35,-1.05,0,*4F
1505315164.75,42180,17.25,73480.8,4.77,-11.89,-0.73,0,*73
1505315165.98,42181,17.25,73476.5,4.77,-11.63,-0.73,0,*76
1505315167.2,42182,17.25,73490.3,4.77,-11.51,-0.73,0,*74
1505315168.39,42183,17.25,73492.8,4.77,-10.93,-0.45,0,*7F
1505315169.59,42184,17.25,73480.5,4.77,-10.23,-0.11,0,*72
1505315170.77,42185,17.25,73464.8,4.77,-9.75,0.09,0,*5C
1505315172.0,42186,17.25,73444.0,4.77,-9.45,0.13,0,*67
1505315173.18,42187,17.25,73434.8,4.77,-9.31,0.01,0,*56
1505315174.39,42188,17.25,73450.5,4.77,-9.05,0.13,0,*6D
1505315175.59,42189,17.25,73474.5,4.77,-8.63,0.29,0,*64
1505315176.83,42190,17.25,73472.0,4.77,-8.51,0.29,0,*6D
1505315178.06,42191,17.25,73478.8,4.79,-8.03,0.43,0,*69
1505315179.31,42192,17.25,73492.8,4.79,-7.77,0.51,0,*65
1505315180.56,42193,17.25,73494.8,4.79,-7.39,0.67,0,*6B
1505315181.77,42194,17.25,73484.8,4.77,-7.19,0.71,0,*67
1505315182.98,42195,17.25,73482.5,4.77,-7.11,0.71,0,*6E
1505315184.21,42196,17.25,73498.0,4.77,-6.97,0.59,0,*68
1505315185.44,42197,17.25,73506.3,4.79,-6.73,0.63,0,*64
1505315186.67,42198,17.25,73500.5,4.79,-6.47,0.79,0,*67
1505315187.92,42199,17.25,73458.0,4.79,-6.27,0.87,0,*61
1505315189.09,42200,17.25,73454.3,4.81,-6.05,0.97,0,*64
1505315190.32,42201,17.25,73470.3,4.79,-5.81,0.97,0,*6D
1505315191.58,42202,17.25,73460.8,4.79,-5.81,0.91,0,*68
1505315192.77,42203,17.25,73452.8,4.81,-5.55,1.01,0,*5F
1505315193.95,42204,17.25,73442.0,4.81,-5.51,0.97,0,*62
1505315195.15,42205,17.25,73444.8,4.81,-5.43,0.91,0,*66
1505315196.35,42206,17.25,73442.8,4.81,-5.39,0.79,0,*6E
1505315197.54,42207,17.25,73446.3,4.81,-5.43,0.67,0,*6D
1505315198.77,42208,17.25,73452.5,4.79,-5.35,0.67,0,*64
1505315199.99,42209,17.25,73464.8,4.79,-4.89,0.97,0,*6C
1505315201.25,42210,17.25,73462.5,4.79,-5.03,0.79,0,*67
1505315202.43,42211,17.25,73454.8,4.81,-4.61,1.05,0,*5E
1505315203.66,42212,17.25,73456.0,4.79,-4.49,1.17,0,*53
1505315204.86,42213,17.25,73474.0,4.81,-4.37,1.25,0,*5D
1505315206.04,42214,17.25,73472.3,4.81,-4.33,1.05,0,*5C
1505315207.27,42215,17.25,73476.5,4.79,-4.49,0.75,0,*61
1505315208.47,42216,17.25,73466.0,4.81,-4.49,0.75,0,*65
1505315209.68,42217,17.25,73466.3,4.81,-4.01,1.01,0,*5A
1505315210.89,42218,17.25,73470.0,4.81,-3.87,1.13,0,*5F
1505315212.1,42219,17.25,73472.3,4.79,-3.83,1.01,0,*5E
1505315213.36,42220,17.25,73480.0,4.79,-3.59,1.17,0,*54
1505315214.6,42221,17.25,73482.5,4.79,-3.47,1.05,0,*59
1505315215.83,42222,17.25,73474.8,4.81,-3.43,1.13,0,*5E
1505315217.04,42223,17.25,73474.0,4.81,-3.19,1.13,0,*50
1505315218.22,42224,17.25,73462.0,4.81,-3.11,1.05,0,*58
1505315219.45,42225,17.25,73460.8,4.79,-2.91,1.13,0,*50
1505315220.65,42226,17.25,73460.3,4.81,-2.83,1.17,0,*53
1505315221.86,42227,17.25,73450.5,4.79,-2.79,1.05,0,*53
1505315223.08,42228,17.19,73444.3,4.79,-2.67,0.97,0,*69
1505315224.31,42229,17.25,73446.0,4.81,-2.47,1.13,0,*50
1505315225.57,42230,17.25,73474.5,4.79,-2.55,0.91,0,*67
1505315226.79,42231,17.25,73474.5,4.81,-2.67,0.67,0,*69
1505315228.02,42232,17.25,73474.0,4.79,-2.35,0.79,0,*65
1505315229.25,42233,17.25,73486.3,4.79,-2.15,0.91,0,*60
1505315230.48,42234,17.25,73486.0,4.79,-1.55,1.25,0,*5E
1505315231.74,42235,17.25,73494.3,4.79,-1.43,1.29,0,*54
1505315232.98,42236,17.25,73496.3,4.79,-1.33,1.25,0,*5C
1505315234.21,42237,17.25,73492.5,4.79,-1.21,1.25,0,*5E
1505315235.44,42238,17.25,73496.5,4.81,-1.09,1.25,0,*5C
1505315236.67,42239,17.25,73494.3,4.81,-0.85,1.37,0,*6B
1505315237.87,42240,17.25,73494.3,4.81,-0.81,1.29,0,*6E
1505315239.1,42241,17.25,73490.8,4.79,-0.69,1.25,0,*62
1505315240.3,42242,17.25,73486.8,4.81,-0.45,1.29,0,*64
1505315241.5,42243,17.25,73486.8,4.81,-0.33,1.29,0,*64
1505315242.69,42244,17.25,73482.8,4.81,-0.29,1.17,0,*65
1505315243.92,42245,17.25,73480.3,4.79,-0.23,1.05,0,*6A
1505315245.1,42246,17.25,73480.3,4.81,0.01,1.25,0,*71
1505315246.34,42247,17.25,73476.3,4.79,0.17,1.29,0,*4C
1505315247.53,42248,17.25,73478.3,4.79,-0.07,0.97,0,*6B
1505315248.77,42249,17.25,73490.0,4.79,0.41,1.29,0,*41
1505315249.98,42250,17.25,73490.0,4.81,0.67,1.47,0,*42
1505315251.22,42251,17.25,73480.0,4.79,0.75,1.29,0,*4F
1505315252.44,42252,17.25,73474.8,4.81,0.55,1.25,0,*45
1505315253.66,42253,17.25,73476.8,4.81,0.63,1.17,0,*40
1505315254.9,42254,17.25,73486.3,4.79,0.75,1.13,0,*43
1505315256.09,42255,17.25,73490.3,4.81,0.75,1.05,0,*42
1505315257.29,42256,17.25,73490.8,4.81,0.79,1.05,0,*4D
1505315258.52,42257,17.25,73498.3,4.79,1.01,1.25,0,*77
1505315259.74,42258,17.25,73484.0,4.81,1.25,1.29,0,*75
1505315260.98,42259,17.25,73490.8,4.81,1.29,1.37,0,*77
1505315262.21,42260,17.25,73486.0,4.81,1.29,1.37,0,*7D
1505315263.42,42261,17.25,73486.3,4.81,1.37,1.41,0,*72
1505315264.65,42262,17.25,73494.5,4.81,1.37,1.29,0,*7F
1505315265.85,42263,17.25,73500.8,4.81,1.37,1.41,0,*70
1505315267.05,42264,17.25,73518.8,4.81,1.41,1.51,0,*77
1505315268.25,42265,17.25,73512.8,4.85,1.41,1.43,0,*71
1505315269.51,42266,17.25,73506.0,4.87,1.33,1.33,0,*72
1505315270.77,42267,17.25,73516.5,4.87,1.17,1.21,0,*76
1505315272.03,42268,17.25,73516.5,4.87,1.21,1.29,0,*74
1505315273.27,42269,17.25,73504.5,4.85,1.17,1.33,0,*79
1505315274.49,42270,17.25,73504.8,4.85,0.95,1.09,0,*43
1505315275.73,42271,17.25,73498.8,4.87,0.95,1.21,0,*4A
1505315277.0,42272,17.25,73500.5,4.87,1.09,1.33,0,*7E
1505315278.23,42273,17.25,73504.3,4.87,1.05,1.33,0,*73
1505315279.46,42274,17.25,73504.3,4.87,1.01,1.33,0,*70
1505315280.69,42275,17.25,73502.8,4.87,1.01,1.33,0,*71
1505315281.89,42276,17.25,73512.0,4.89,0.97,1.37,0,*46
1505315283.12,42277,17.25,73508.5,4.89,1.09,1.37,0,*71
1505315284.34,42278,17.25,73502.8,4.89,1.13,1.47,0,*72
1505315285.57,42279,17.25,73504.0,4.89,1.13,1.47,0,*73
1505315286.76,42280,17.25,73512.5,4.89,0.97,1.43,0,*4C
1505315287.96,42281,17.25,73514.3,4.89,0.97,1.37,0,*4E
1505315289.21,42282,17.25,73514.8,4.91,1.09,1.59,0,*7A
1505315290.42,42283,17.25,73506.5,4.89,0.75,1.43,0,*43
1505315291.63,42284,17.25,73510.5,4.89,0.87,1.43,0,*49
1505315292.86,42285,17.25,73506.8,4.91,0.67,1.29,0,*43
1505315294.11,42286,17.25,73494.0,4.91,0.51,1.13,0,*4C
1505315295.32,42287,17.25,73490.3,4.91,0.43,1.13,0,*4E
1505315296.55,42288,17.25,73482.8,4.91,0.17,0.87,0,*7C
1505315297.77,42289,17.25,73478.0,4.89,0.47,1.09,0,*46
1505315299.01,42290,17.25,73478.0,4.91,0.55,1.25,0,*4A
1505315300.25,42291,17.25,73480.0,4.91,0.67,1.37,0,*49
1505315301.48,42292,17.25,73482.0,4.91,0.67,1.29,0,*45
1505315302.73,42293,17.25,73480.5,4.91,0.55,1.29,0,*45
1505315303.97,42294,17.25,73478.5,4.91,0.63,1.37,0,*48
1505315305.21,42295,17.25,73484.8,4.93,0.63,1.29,0,*44
1505315306.43,42296,17.25,73484.8,4.93,0.43,1.25,0,*49
1505315307.68,42297,17.25,73486.3,4.93,0.37,1.13,0,*4E
1505315308.89,42298,17.25,73482.0,4.93,0.43,1.25,0,*47